TimeCDT,TemperatureF,Dew PointF,Humidity,Sea Level PressureIn,VisibilityMPH,Wind Direction,Wind SpeedMPH,Gust SpeedMPH,PrecipitationIn,Events,Conditions,WindDirDegrees,DateUTC
12:15 AM,40.8,40.6,99,29.72,0.8,Calm,Calm,-,N/A,,Unknown,0,2012-10-20 05:15:00
12:35 AM,40.8,40.8,100,29.72,1.0,Calm,Calm,-,N/A,,Unknown,0,2012-10-20 05:35:00
12:55 AM,40.8,40.8,100,29.72,0.2,Calm,Calm,-,N/A,,Unknown,0,2012-10-20 05:55:00
1:15 AM,40.6,40.6,100,29.72,0.5,SSW,3.5,-,N/A,,Unknown,210,2012-10-20 06:15:00
1:55 AM,40.6,40.6,100,29.72,0.2,SSW,5.8,-,N/A,,Unknown,200,2012-10-20 06:55:00
2:15 AM,40.6,40.6,100,29.71,0.5,Calm,Calm,-,N/A,,Unknown,0,2012-10-20 07:15:00
2:35 AM,40.3,40.3,100,29.72,0.8,SSE,4.6,-,N/A,,Unknown,150,2012-10-20 07:35:00
2:55 AM,39.9,39.9,100,29.72,4.0,South,4.6,-,N/A,,Overcast,170,2012-10-20 07:55:00
3:15 AM,39.9,39.9,100,29.72,0.8,Calm,Calm,-,N/A,,Overcast,0,2012-10-20 08:15:00
3:55 AM,40.1,40.1,100,29.73,7.0,Calm,Calm,-,N/A,,Overcast,0,2012-10-20 08:55:00
4:15 AM,40.1,40.1,100,29.73,4.0,Calm,Calm,-,N/A,,Overcast,0,2012-10-20 09:15:00
4:55 AM,40.5,40.5,100,29.72,1.5,Calm,Calm,-,N/A,,Overcast,0,2012-10-20 09:55:00
5:15 AM,40.6,40.6,100,29.72,1.5,Calm,Calm,-,N/A,,Overcast,0,2012-10-20 10:15:00
5:35 AM,40.8,40.8,100,29.72,0.5,South,3.5,-,N/A,Fog,Fog,190,2012-10-20 10:35:00
5:55 AM,41.0,41.0,100,29.72,0.5,Calm,Calm,-,N/A,Fog,Fog,0,2012-10-20 10:55:00
6:15 AM,41.0,41.0,100,29.71,0.2,ESE,4.6,-,N/A,Fog,Fog,120,2012-10-20 11:15:00
6:35 AM,41.0,41.0,100,29.71,0.5,ESE,3.5,-,N/A,Fog,Fog,120,2012-10-20 11:35:00
6:55 AM,41.0,41.0,100,29.71,0.2,SE,3.5,-,N/A,Fog,Fog,140,2012-10-20 11:55:00
7:15 AM,41.0,41.0,100,29.72,0.5,SE,5.8,-,N/A,Fog,Fog,140,2012-10-20 12:15:00
7:35 AM,41.0,41.0,100,29.72,0.2,SSE,3.5,-,N/A,Fog,Fog,150,2012-10-20 12:35:00
7:55 AM,41.4,41.4,100,29.71,0.2,SE,5.8,-,N/A,Fog,Fog,140,2012-10-20 12:55:00
8:15 AM,41.5,41.5,100,29.72,0.2,SSE,6.9,-,N/A,Fog,Fog,160,2012-10-20 13:15:00
8:35 AM,41.9,41.9,100,29.73,0.8,SSE,4.6,-,N/A,,Overcast,160,2012-10-20 13:35:00
8:55 AM,42.3,42.3,100,29.73,4.0,South,6.9,-,N/A,,Overcast,170,2012-10-20 13:55:00
9:15 AM,42.8,42.8,100,29.73,5.0,South,6.9,-,N/A,,Overcast,180,2012-10-20 14:15:00
9:35 AM,42.8,42.8,100,29.73,10.0,South,6.9,-,N/A,,Overcast,180,2012-10-20 14:35:00
9:55 AM,43.0,42.6,99,29.72,7.0,South,8.1,-,N/A,,Overcast,170,2012-10-20 14:55:00
10:35 AM,43.3,42.6,97,29.72,7.0,South,8.1,-,N/A,,Overcast,190,2012-10-20 15:35:00
11:15 AM,43.7,42.6,96,29.73,7.0,South,6.9,-,N/A,,Overcast,180,2012-10-20 16:15:00
11:35 AM,44.2,42.8,95,29.73,7.0,South,6.9,-,N/A,,Overcast,170,2012-10-20 16:35:00
11:55 AM,45.1,43.3,93,29.73,10.0,South,10.4,-,N/A,,Overcast,180,2012-10-20 16:55:00
12:15 PM,45.9,43.2,90,29.71,7.0,South,10.4,-,N/A,,Overcast,170,2012-10-20 17:15:00
12:35 PM,46.4,43.2,88,29.70,7.0,SSE,10.4,-,N/A,,Overcast,160,2012-10-20 17:35:00
12:55 PM,46.8,43.5,88,29.70,10.0,SSE,9.2,-,N/A,,Overcast,160,2012-10-20 17:55:00
1:15 PM,47.3,43.2,86,29.71,7.0,SSE,12.7,-,N/A,,Overcast,160,2012-10-20 18:15:00
1:35 PM,47.3,43.0,85,29.71,7.0,South,10.4,-,N/A,,Overcast,170,2012-10-20 18:35:00
1:55 PM,47.3,43.0,85,29.70,10.0,South,9.2,18.4,N/A,,Overcast,190,2012-10-20 18:55:00
2:15 PM,47.3,42.4,83,29.69,7.0,South,10.4,18.4,N/A,,Overcast,170,2012-10-20 19:15:00
2:35 PM,47.5,42.8,84,29.69,7.0,South,11.5,-,N/A,,Overcast,170,2012-10-20 19:35:00
2:55 PM,47.5,42.6,83,29.70,10.0,South,12.7,-,N/A,,Overcast,180,2012-10-20 19:55:00
3:35 PM,47.8,43.0,83,29.69,10.0,South,11.5,17.3,N/A,,Overcast,170,2012-10-20 20:35:00
3:55 PM,47.8,42.4,82,29.69,7.0,South,10.4,-,N/A,,Overcast,180,2012-10-20 20:55:00
4:15 PM,47.8,42.8,83,29.69,7.0,SSE,11.5,16.1,N/A,,Overcast,160,2012-10-20 21:15:00
4:35 PM,47.7,42.6,83,29.69,7.0,South,9.2,-,N/A,,Overcast,180,2012-10-20 21:35:00
4:55 PM,48.0,42.3,80,29.69,10.0,South,10.4,17.3,N/A,,Overcast,170,2012-10-20 21:55:00
5:35 PM,48.2,42.1,79,29.69,7.0,SSE,12.7,-,N/A,,Overcast,160,2012-10-20 22:35:00
5:55 PM,48.0,41.9,79,29.69,7.0,South,8.1,-,N/A,,Overcast,180,2012-10-20 22:55:00
6:15 PM,47.7,42.1,81,29.69,7.0,SSE,9.2,-,N/A,,Overcast,160,2012-10-20 23:15:00
6:35 PM,47.5,41.9,81,29.68,10.0,SSE,10.4,-,N/A,,Overcast,160,2012-10-20 23:35:00
6:55 PM,47.1,41.9,82,29.69,10.0,SSE,9.2,-,N/A,,Overcast,160,2012-10-20 23:55:00
7:15 PM,46.9,41.5,81,29.68,10.0,SSE,11.5,-,N/A,,Overcast,160,2012-10-21 00:15:00
7:35 PM,46.2,41.2,83,29.68,10.0,SSE,9.2,-,N/A,,Scattered Clouds,160,2012-10-21 00:35:00
7:55 PM,46.0,41.4,84,29.69,10.0,SSE,8.1,-,N/A,,Scattered Clouds,160,2012-10-21 00:55:00
8:15 PM,45.9,41.5,85,29.69,10.0,SSE,6.9,-,N/A,,Scattered Clouds,160,2012-10-21 01:15:00
8:35 PM,45.7,41.5,85,29.69,10.0,SSE,6.9,-,N/A,,Clear,160,2012-10-21 01:35:00
8:55 PM,45.5,41.2,85,29.70,7.0,SSE,8.1,-,N/A,,Clear,160,2012-10-21 01:55:00
9:35 PM,44.2,40.8,88,29.70,7.0,SSE,6.9,-,N/A,,Clear,150,2012-10-21 02:35:00
9:55 PM,43.9,40.6,88,29.71,10.0,SSE,9.2,-,N/A,,Scattered Clouds,160,2012-10-21 02:55:00
10:15 PM,43.7,41.0,90,29.71,10.0,SSE,5.8,-,N/A,,Mostly Cloudy,160,2012-10-21 03:15:00
10:35 PM,43.7,41.0,90,29.72,7.0,South,4.6,-,N/A,,Mostly Cloudy,180,2012-10-21 03:35:00
10:55 PM,44.1,41.2,90,29.72,10.0,South,8.1,-,N/A,,Mostly Cloudy,180,2012-10-21 03:55:00
11:15 PM,44.8,41.4,88,29.73,10.0,South,9.2,-,N/A,,Mostly Cloudy,180,2012-10-21 04:15:00
11:35 PM,45.0,41.4,87,29.73,7.0,South,9.2,-,N/A,,Mostly Cloudy,170,2012-10-21 04:35:00
11:55 PM,44.8,41.4,88,29.73,7.0,SSE,9.2,-,N/A,,Mostly Cloudy,160,2012-10-21 04:55:00